This is the latest recevied weather packets stored in our database for station/object K2CCS. If no packets are shown the sender has not sent any weather packets the latest 10 day(s).
| Time | Temp. | Humidity | Pressure | Rain* | Wind** | Luminosity | Snow |
|---|---|---|---|---|---|---|---|
| 1777462874 | 11.67° C | 63% | 1020.1 hPa | 0 mm | - | 61 W/m² | - |
| 1777462570 | 11.67° C | 63% | 1020.2 hPa | 0 mm | - | 52 W/m² | - |
| 1777462266 | 11.67° C | 63% | 1020.1 hPa | 0 mm | - | 46 W/m² | - |
| 1777461961 | 11.11° C | 63% | 1020.1 hPa | 0 mm | - | 46 W/m² | - |
| 1777461659 | 11.11° C | 63% | 1020.1 hPa | 0 mm | - | 39 W/m² | - |
| 1777461353 | 11.11° C | 63% | 1020 hPa | 0 mm | - | 35 W/m² | - |
| 1777461050 | 11.11° C | 63% | 1020 hPa | 0 mm | - | 25 W/m² | - |
| 1777460745 | 11.11° C | 63% | 1020.2 hPa | 0 mm | - | 22 W/m² | - |
| 1777460442 | 11.11° C | 63% | 1020.1 hPa | 0 mm | - | 26 W/m² | - |
| 1777460137 | 11.11° C | 63% | 1020 hPa | 0 mm | - | 19 W/m² | - |
| 1777459835 | 10.56° C | 63% | 1020 hPa | 0 mm | - | 19 W/m² | - |
| 1777459532 | 10.56° C | 63% | 1020 hPa | 0 mm | - | 17 W/m² | - |
| 1777459229 | 10.56° C | 62% | 1020.1 hPa | 0 mm | - | 11 W/m² | - |
| 1777458927 | 10.56° C | 62% | 1020 hPa | 0 mm | - | 8 W/m² | - |
| 1777458623 | 10.56° C | 62% | 1020 hPa | 0 mm | - | 7 W/m² | - |
| 1777458320 | 10.56° C | 63% | 1019.8 hPa | 0 mm | - | 6 W/m² | - |
| 1777458015 | 10.56° C | 63% | 1019.9 hPa | 0 mm | - | 6 W/m² | - |
| 1777457712 | 10.56° C | 64% | 1019.9 hPa | 0 mm | - | 4 W/m² | - |
| 1777457411 | 10.56° C | 65% | 1019.9 hPa | 0 mm | - | 3 W/m² | - |
| 1777457107 | 10.56° C | 65% | 1019.8 hPa | 0 mm | - | 3 W/m² | - |
| 1777456803 | 10° C | 65% | 1019.7 hPa | 0 mm | - | 2 W/m² | - |
| 1777456502 | 10° C | 66% | 1019.8 hPa | 0 mm | - | 1 W/m² | - |
| 1777456198 | 10° C | 66% | 1019.7 hPa | 0 mm | - | 0 W/m² | - |
| 1777455894 | 9.44° C | 68% | 1019.9 hPa | 0 mm | - | 0 W/m² | - |
| 1777455592 | 9.44° C | 68% | 1020 hPa | 0 mm | - | 0 W/m² | - |
* Rain latest hour (hover to see other rain measurements)
** Current wind speed in m/s (hover to see current wind gust speed)